Location: Melbourne
(37.8666°S, 145.1333°E)
Time: 00:49:11
(UTC+10:00)

Hubble Space Telescope - Visible Passes

Search period start: 03 September 2015 00:00
Search period end: 13 September 2015 00:00
Orbit: 541 x 545 km, 28.5° (Epoch: 01 September)

Date Brightness Start Highest point End Pass type
(mag) Time Alt. Az. Time Alt. Az. Time Alt. Az.
03 Sep 2.4 19:21:24 10° NW 19:24:42 22° N 19:26:00 19° NNE visible
04 Sep 2.5 19:12:23 10° NW 19:15:41 22° N 19:17:38 16° NE visible
05 Sep 2.7 19:03:24 10° NW 19:06:38 21° N 19:09:17 13° NE visible
06 Sep 2.8 18:54:29 10° NW 18:57:36 20° N 19:00:42 10° NE visible
07 Sep 3.0 18:45:36 10° NW 18:48:33 18° N 18:51:28 10° NNE visible
08 Sep 3.1 18:36:48 10° NW 18:39:30 16° NNW 18:42:09 10° NNE visible
09 Sep 3.3 18:28:06 10° NW 18:30:26 14° NNW 18:32:41 10° NNE visible
